| time (UTC) | temp C | wind direction | speed KPH | gust KPH | rain 1hr cm | rain 24hr cm | rain mn cm | humidity % | barometer mb |
| 20260901081025 | 21 | 236 | 20.9 | 32.2 | 0.00 | 0.00 | 0.00 | 58 | 1019.5 |
| 20260901075024 | 21 | 227 | 16.1 | 20.9 | 0.00 | 0.00 | 0.00 | 57 | 1019.4 |
| 20260901074027 | 21 | 226 | 19.3 | 24.1 | 0.00 | 0.00 | 0.00 | 57 | 1019.4 |
| 20260901073025 | 21 | 224 | 14.5 | 19.3 | 0.00 | 0.00 | 0.00 | 58 | 1019.2 |
| 20260901072926 | 21 | 223 | 14.5 | 17.7 | 0.00 | 0.00 | 0.00 | 58 | 1019.2 |
| 20260901071925 | 20 | 220 | 9.7 | 14.5 | 0.00 | 0.00 | 0.00 | 60 | 1019.2 |
| 20260901071023 | 18 | 199 | 6.4 | 16.1 | 0.00 | 0.00 | 0.00 | 67 | 1019.2 |
| 20260901065028 | 18 | 157 | 0.0 | 1.6 | 0.00 | 0.00 | 0.00 | 66 | 1019.0 |
| 20260901063128 | 18 | 157 | 0.0 | 1.6 | 0.00 | 0.00 | 0.00 | 64 | 1019.0 |
| 20260901062126 | 18 | 135 | 0.0 | 0.0 | 0.00 | 0.00 | 0.00 | 64 | 1019.0 |
| 20260901061128 | 18 | 135 | 0.0 | 0.0 | 0.00 | 0.00 | 0.00 | 61 | 1018.7 |
| 20260901060127 | 18 | 135 | 0.0 | 0.0 | 0.00 | 0.00 | 0.00 | 60 | 1018.7 |
| 20260901055129 | 18 | 135 | 0.0 | 0.0 | 0.00 | 0.00 | 0.00 | 58 | 1018.7 |
| 20260901054129 | 19 | 135 | 0.0 | 0.0 | 0.00 | 0.00 | 0.00 | 58 | 1018.6 |
| 20260901053127 | 20 | 135 | 0.0 | 0.0 | 0.00 | 0.00 | 0.00 | 56 | 1018.4 |
| 20260901052226 | 20 | 157 | 1.6 | 3.2 | 0.00 | 0.00 | 0.00 | 56 | 1018.3 |
| 20260901051325 | 20 | 157 | 0.0 | 0.0 | 0.00 | 0.00 | 0.00 | 55 | 1018.4 |
| 20260901045328 | 20 | 157 | 0.0 | 0.0 | 0.00 | 0.00 | 0.00 | 55 | 1018.4 |
| 20260901045226 | 20 | 157 | 0.0 | 0.0 | 0.00 | 0.00 | 0.00 | 56 | 1018.4 |
| 20260901044227 | 20 | 157 | 1.6 | 3.2 | 0.00 | 0.00 | 0.00 | 54 | 1018.4 |
| 20260901043229 | 21 | 157 | 0.0 | 1.6 | 0.00 | 0.00 | 0.00 | 53 | 1018.3 |
| 20260901042326 | 21 | 157 | 0.0 | 0.0 | 0.00 | 0.00 | 0.00 | 50 | 1018.0 |
| 20260901041328 | 22 | 157 | 1.6 | 1.6 | 0.00 | 0.00 | 0.00 | 50 | 1017.9 |
| 20260901040328 | 22 | 157 | 0.0 | 3.2 | 0.00 | 0.00 | 0.00 | 48 | 1017.8 |
| 20260901035327 | 22 | 157 | 0.0 | 0.0 | 0.00 | 0.00 | 0.00 | 47 | 1017.7 |
| 20260901034328 | 23 | 180 | 0.0 | 0.0 | 0.00 | 0.00 | 0.00 | 47 | 1017.6 |
| 20260901033327 | 23 | 180 | 0.0 | 0.0 | 0.00 | 0.00 | 0.00 | 47 | 1017.5 |
| 20260901032328 | 24 | 270 | 0.0 | 0.0 | 0.00 | 0.00 | 0.00 | 46 | 1017.2 |
| 20260901031328 | 26 | 225 | 0.0 | 0.0 | 0.00 | 0.00 | 0.00 | 43 | 1017.2 |
| 20260901030328 | 26 | 225 | 6.4 | 11.3 | 0.00 | 0.00 | 0.00 | 40 | 1017.1 |
| 20260901024525 | 26 | 204 | 4.8 | 14.5 | 0.00 | 0.00 | 0.00 | 39 | 1016.9 |
| 20260901022527 | 27 | 223 | 9.7 | 16.1 | 0.00 | 0.00 | 0.00 | 40 | 1016.6 |
| 20260901021529 | 27 | 220 | 11.3 | 19.3 | 0.00 | 0.00 | 0.00 | 40 | 1016.6 |
| 20260901020626 | 27 | 217 | 9.7 | 17.7 | 0.00 | 0.00 | 0.00 | 40 | 1016.5 |
| 20260901014725 | 26 | 225 | 12.9 | 16.1 | 0.00 | 0.00 | 0.00 | 37 | 1016.4 |
| 20260901013727 | 26 | 225 | 8.0 | 11.3 | 0.00 | 0.00 | 0.00 | 41 | 1016.3 |
| 20260901012728 | 26 | 45 | 0.0 | 0.0 | 0.00 | 0.00 | 0.00 | 41 | 1016.3 |
| 20260901011728 | 26 | 45 | 0.0 | 0.0 | 0.00 | 0.00 | 0.00 | 41 | 1016.3 |
| 20260901010826 | 26 | 45 | 0.0 | 0.0 | 0.00 | 0.00 | 0.00 | 44 | 1016.3 |
| 20260901005828 | 25 | 45 | 4.8 | 4.8 | 0.00 | 0.00 | 0.00 | 45 | 1016.4 |
| 20260901004829 | 26 | 45 | 8.0 | 11.3 | 0.00 | 0.00 | 0.00 | 47 | 1016.4 |
| 20260901003927 | 28 | 45 | 11.3 | 12.9 | 0.00 | 0.00 | 0.00 | 40 | 1016.4 |
| 20260901002928 | 29 | 45 | 12.9 | 16.1 | 0.00 | 0.00 | 0.00 | 27 | 1016.4 |
| 20260901002027 | 28 | 44 | 12.9 | 19.3 | 0.00 | 0.00 | 0.00 | 30 | 1016.4 |
| 20260901000027 | 28 | 45 | 14.5 | 19.3 | 0.00 | 0.00 | 0.00 | 32 | 1016.5 |
| 20260831235126 | 26 | 45 | 14.5 | 20.9 | 0.00 | 0.00 | 0.00 | 40 | 1016.5 |
| 20260831233226 | 27 | 46 | 16.1 | 24.1 | 0.00 | 0.00 | 0.00 | 32 | 1016.6 |
| 20260831232228 | 28 | 46 | 17.7 | 22.5 | 0.00 | 0.00 | 0.00 | 30 | 1016.6 |
| 20260831231227 | 28 | 45 | 17.7 | 27.4 | 0.00 | 0.00 | 0.00 | 31 | 1016.7 |
| 20260831230227 | 27 | 45 | 17.7 | 25.7 | 0.00 | 0.00 | 0.00 | 32 | 1016.8 |
| 20260831224227 | 27 | 45 | 16.1 | 25.7 | 0.00 | 0.00 | 0.00 | 29 | 1017.3 |
| 20260831223226 | 27 | 46 | 16.1 | 24.1 | 0.00 | 0.00 | 0.00 | 31 | 1017.3 |
| 20260831222226 | 27 | 40 | 16.1 | 22.5 | 0.00 | 0.00 | 0.00 | 32 | 1017.5 |
| 20260831221227 | 27 | 46 | 14.5 | 25.7 | 0.00 | 0.00 | 0.00 | 34 | 1017.6 |
| 20260831221128 | 27 | 49 | 16.1 | 25.7 | 0.00 | 0.00 | 0.00 | 33 | 1017.6 |
| 20260831220127 | 27 | 46 | 20.9 | 35.4 | 0.00 | 0.00 | 0.00 | 31 | 1017.6 |
| 20260831215126 | 25 | 45 | 19.3 | 24.1 | 0.00 | 0.00 | 0.00 | 42 | 1017.8 |
| 20260831214129 | 26 | 46 | 22.5 | 29.0 | 0.00 | 0.00 | 0.00 | 39 | 1017.8 |
| 20260831213225 | 26 | 46 | 20.9 | 32.2 | 0.00 | 0.00 | 0.00 | 36 | 1018.1 |
| 20260831212229 | 26 | 49 | 24.1 | 32.2 | 0.00 | 0.00 | 0.00 | 35 | 1018.3 |
| 20260831211326 | 26 | 46 | 20.9 | 32.2 | 0.00 | 0.00 | 0.00 | 34 | 1018.5 |
| 20260831210328 | 26 | 45 | 25.7 | 41.8 | 0.00 | 0.00 | 0.00 | 34 | 1018.4 |
| 20260831205426 | 25 | 46 | 22.5 | 30.6 | 0.00 | 0.00 | 0.00 | 34 | 1018.3 |
| 20260831203427 | 25 | 44 | 24.1 | 35.4 | 0.00 | 0.00 | 0.00 | 34 | 1018.8 |
| 20260831202427 | 25 | 46 | 17.7 | 30.6 | 0.00 | 0.00 | 0.00 | 37 | 1018.9 |
| 20260831201447 | 24 | 46 | 24.1 | 38.6 | 0.00 | 0.00 | 0.00 | 40 | 1019.0 |
| 20260831201326 | 24 | 46 | 24.1 | 35.4 | 0.00 | 0.00 | 0.00 | 39 | 1019.0 |
| 20260831200326 | 23 | 44 | 22.5 | 29.0 | 0.00 | 0.00 | 0.00 | 40 | 1019.2 |
| 20260831195425 | 23 | 46 | 24.1 | 38.6 | 0.00 | 0.00 | 0.00 | 41 | 1019.4 |
| 20260831194428 | 23 | 46 | 22.5 | 35.4 | 0.00 | 0.00 | 0.00 | 41 | 1019.7 |
| 20260831194326 | 23 | 45 | 20.9 | 33.8 | 0.00 | 0.00 | 0.00 | 42 | 1019.7 |
| 20260831193326 | 23 | 46 | 25.7 | 38.6 | 0.00 | 0.00 | 0.00 | 40 | 1019.4 |
| 20260831193225 | 23 | 46 | 25.7 | 40.2 | 0.00 | 0.00 | 0.00 | 41 | 1019.5 |
| 20260831192228 | 23 | 46 | 24.1 | 40.2 | 0.00 | 0.00 | 0.00 | 41 | 1019.8 |
| 20260831190327 | 22 | 45 | 25.7 | 37.0 | 0.00 | 0.00 | 0.00 | 41 | 1020.3 |
| 20260831185328 | 22 | 46 | 24.1 | 33.8 | 0.00 | 0.00 | 0.00 | 41 | 1020.3 |
| 20260831183427 | 22 | 46 | 24.1 | 43.5 | 0.00 | 0.00 | 0.00 | 43 | 1020.7 |
| 20260831183327 | 22 | 44 | 20.9 | 30.6 | 0.00 | 0.00 | 0.00 | 44 | 1020.8 |
| 20260831181426 | 22 | 47 | 20.9 | 33.8 | 0.00 | 0.00 | 0.00 | 45 | 1020.9 |
| 20260831180327 | 21 | 47 | 24.1 | 33.8 | 0.00 | 0.00 | 0.00 | 47 | 1020.9 |
| 20260831175326 | 21 | 42 | 19.3 | 37.0 | 0.00 | 0.00 | 0.00 | 48 | 1021.2 |
| 20260831174426 | 21 | 46 | 24.1 | 35.4 | 0.00 | 0.00 | 0.00 | 47 | 1021.3 |
| 20260831173426 | 21 | 44 | 19.3 | 29.0 | 0.00 | 0.00 | 0.00 | 47 | 1021.5 |
| 20260831172428 | 21 | 44 | 25.7 | 32.2 | 0.00 | 0.00 | 0.00 | 47 | 1021.3 |
| 20260831171426 | 21 | 46 | 17.7 | 29.0 | 0.00 | 0.00 | 0.00 | 47 | 1021.5 |
| 20260831170425 | 20 | 47 | 16.1 | 27.4 | 0.00 | 0.00 | 0.00 | 48 | 1021.7 |
| 20260831165426 | 20 | 45 | 17.7 | 25.7 | 0.00 | 0.00 | 0.00 | 49 | 1021.7 |
| 20260831164427 | 20 | 68 | 11.3 | 16.1 | 0.00 | 0.00 | 0.00 | 51 | 1021.9 |
| 20260831163525 | 19 | 43 | 11.3 | 20.9 | 0.00 | 0.00 | 0.00 | 54 | 1021.9 |
| 20260831161527 | 17 | 45 | 37.0 | 48.3 | 0.00 | 0.00 | 0.00 | 69 | 1021.8 |
| 20260831155526 | 16 | 46 | 30.6 | 46.7 | 0.00 | 0.00 | 0.00 | 71 | 1022.4 |
| 20260831154528 | 16 | 46 | 33.8 | 45.1 | 0.00 | 0.00 | 0.00 | 69 | 1022.4 |
| 20260831153528 | 16 | 48 | 19.3 | 33.8 | 0.00 | 0.00 | 0.00 | 69 | 1022.7 |
| 20260831152527 | 16 | 44 | 24.1 | 33.8 | 0.00 | 0.00 | 0.00 | 69 | 1022.9 |
| 20260831151627 | 16 | 66 | 11.3 | 17.7 | 0.00 | 0.00 | 0.00 | 70 | 1023.0 |
| 20260831143726 | 15 | 48 | 6.4 | 12.9 | 0.00 | 0.00 | 0.00 | 74 | 1023.4 |
| 20260831142726 | 15 | 46 | 8.0 | 16.1 | 0.00 | 0.00 | 0.00 | 74 | 1023.4 |
| 20260831141726 | 15 | 43 | 19.3 | 29.0 | 0.00 | 0.00 | 0.00 | 74 | 1023.2 |
| 20260831140728 | 15 | 49 | 16.1 | 27.4 | 0.00 | 0.00 | 0.00 | 76 | 1023.2 |
| 20260831135827 | 15 | 43 | 19.3 | 29.0 | 0.00 | 0.00 | 0.00 | 76 | 1023.1 |
| 20260831134827 | 14 | 44 | 19.3 | 30.6 | 0.00 | 0.00 | 0.00 | 75 | 1023.2 |
| 20260831133926 | 14 | 82 | 8.0 | 14.5 | 0.00 | 0.00 | 0.00 | 76 | 1023.5 |
| 20260831132927 | 14 | 54 | 11.3 | 16.1 | 0.00 | 0.00 | 0.00 | 76 | 1023.3 |
| 20260831131927 | 14 | 93 | 4.8 | 11.3 | 0.00 | 0.00 | 0.00 | 77 | 1023.4 |
| 20260831130927 | 13 | 86 | 6.4 | 19.3 | 0.00 | 0.00 | 0.00 | 77 | 1023.5 |
| 20260831124926 | 14 | 64 | 8.0 | 17.7 | 0.00 | 0.00 | 0.00 | 78 | 1023.5 |
| 20260831122929 | 13 | 30 | 8.0 | 11.3 | 0.00 | 0.00 | 0.00 | 80 | 1023.6 |
| 20260831122026 | 13 | 18 | 6.4 | 12.9 | 0.00 | 0.00 | 0.00 | 79 | 1023.7 |
| 20260831121026 | 13 | 91 | 3.2 | 6.4 | 0.00 | 0.00 | 0.00 | 82 | 1023.8 |
| 20260831120027 | 13 | 339 | 3.2 | 8.0 | 0.00 | 0.00 | 0.00 | 84 | 1023.8 |
| 20260831115026 | 12 | 90 | 3.2 | 4.8 | 0.00 | 0.00 | 0.00 | 84 | 1023.9 |
| 20260831114027 | 12 | 90 | 0.0 | 0.0 | 0.00 | 0.00 | 0.00 | 84 | 1024.1 |
| 20260831113026 | 12 | 90 | 0.0 | 0.0 | 0.00 | 0.00 | 0.00 | 83 | 1023.8 |
| 20260831112927 | 12 | 90 | 0.0 | 0.0 | 0.00 | 0.00 | 0.00 | 84 | 1023.9 |
| 20260831111926 | 12 | 90 | 0.0 | 0.0 | 0.00 | 0.00 | 0.00 | 84 | 1024.1 |
| 20260831111025 | 12 | 90 | 3.2 | 3.2 | 0.00 | 0.00 | 0.00 | 84 | 1024.2 |
| 20260831110026 | 12 | 90 | 0.0 | 0.0 | 0.00 | 0.00 | 0.00 | 82 | 1024.1 |
| 20260831105027 | 13 | 90 | 0.0 | 0.0 | 0.00 | 0.00 | 0.00 | 83 | 1024.2 |
| 20260831103125 | 12 | 90 | 0.0 | 0.0 | 0.00 | 0.00 | 0.00 | 83 | 1024.3 |
| 20260831102127 | 13 | 90 | 0.0 | 0.0 | 0.00 | 0.00 | 0.00 | 82 | 1024.1 |
| 20260831101225 | 13 | 90 | 0.0 | 1.6 | 0.00 | 0.00 | 0.00 | 83 | 1024.4 |
| 20260831100229 | 12 | 89 | 3.2 | 4.8 | 0.00 | 0.00 | 0.00 | 83 | 1024.4 |
| 20260831100127 | 12 | 62 | 1.6 | 4.8 | 0.00 | 0.00 | 0.00 | 83 | 1024.4 |
| 20260831095126 | 12 | 112 | 3.2 | 3.2 | 0.00 | 0.00 | 0.00 | 82 | 1024.5 |
| 20260831094225 | 13 | 112 | 0.0 | 1.6 | 0.00 | 0.00 | 0.00 | 81 | 1024.5 |
| 20260831093227 | 13 | 112 | 3.2 | 4.8 | 0.00 | 0.00 | 0.00 | 82 | 1024.8 |
| 20260831093126 | 13 | 112 | 3.2 | 4.8 | 0.00 | 0.00 | 0.00 | 82 | 1024.6 |
| 20260831092127 | 13 | 67 | 1.6 | 3.2 | 0.00 | 0.00 | 0.00 | 80 | 1024.8 |
| 20260831090225 | 13 | 67 | 3.2 | 4.8 | 0.00 | 0.00 | 0.00 | 79 | 1024.8 |
| 20260831085226 | 13 | 45 | 0.0 | 0.0 | 0.00 | 0.00 | 0.00 | 79 | 1025.0 |
| 20260831083325 | 13 | 67 | 3.2 | 4.8 | 0.00 | 0.00 | 0.00 | 79 | 1025.0 |